Location: Home
(42.5358°N, 72.7383°W)
Time: 01:21:50
(UTC-04:00)

IRIDIUM 152 - Pass Details

Date: 11 July 2022
Orbit: 776 x 779 km, 86.4° (Epoch: 10 August)

Event Time Altitude Azimuth Distance (km) Brightness Sun altitude
Exits shadow 03:03:42 14° 153° (SSE) 2,063 ? -19.0°
Maximum altitude 03:07:52 43° 86° (E) 1,091 ? -18.6°
Drops below altitude 10° 03:12:47 10° 16° (NNE) 2,340 ? -18.1°
Sets 03:15:14 0° 10° (N) 3,272 ? -17.9°
